TGW4 WSSS-YPPH

Flight info

Callsign TGW4
Flight time N/A
Altitude 39000
Route ANITO8B ANITO B470 PKP L764 LAMOB B469 IDOKU/N0485F410 B469 TOPIR/N0479F400 L514 AVPAL Q38 JULIM JULIM8A
Aircraft B788/H-SDRP2G1WXJ2J3J5M1E1E2E3HY/LB1D1

Departure

Time 2026-05-05 06:01
Airport Singapore Changi Airport (WSSS)

Arrival

Time N/A
Airport Perth International Airport (YPPH)
Time Latitude Longitude Altitude Speed Heading
2026-05-05 05:48 1.36450 103.99286 37 ft 0 kts 143°
2026-05-05 05:52 1.36464 103.99277 37 ft 4 kts 160°
2026-05-05 05:53 1.36490 103.99272 37 ft 4 kts 163°
2026-05-05 05:53 1.36508 103.99262 37 ft 4 kts 123°
2026-05-05 05:53 1.36509 103.99243 36 ft 4 kts 56°
2026-05-05 05:53 1.36494 103.99222 36 ft 4 kts 53°
2026-05-05 05:54 1.36485 103.99210 37 ft 0 kts 53°
2026-05-05 05:55 1.36489 103.99216 37 ft 4 kts 52°
2026-05-05 05:56 1.36498 103.99227 37 ft 5 kts 52°
2026-05-05 05:56 1.36521 103.99259 37 ft 5 kts 53°
2026-05-05 05:57 1.36546 103.99291 37 ft 8 kts 53°
2026-05-05 05:57 1.36581 103.99340 37 ft 8 kts 60°
2026-05-05 05:57 1.36585 103.99387 36 ft 6 kts 102°
2026-05-05 05:57 1.36567 103.99431 36 ft 9 kts 113°
2026-05-05 05:58 1.36537 103.99502 35 ft 13 kts 113°
2026-05-05 05:58 1.36504 103.99581 36 ft 12 kts 113°
2026-05-05 05:58 1.36484 103.99628 36 ft 11 kts 113°
2026-05-05 05:58 1.36456 103.99694 36 ft 10 kts 113°
2026-05-05 05:59 1.36430 103.99753 36 ft 9 kts 113°
2026-05-05 05:59 1.36408 103.99805 36 ft 8 kts 113°
2026-05-05 05:59 1.36377 103.99857 36 ft 11 kts 134°
2026-05-05 05:59 1.36296 103.99880 36 ft 14 kts 174°
2026-05-05 06:00 1.36167 103.99887 36 ft 10 kts 202°
2026-05-05 06:00 1.36097 103.99856 36 ft 31 kts 203°
2026-05-05 06:00 1.35683 103.99681 37 ft 96 kts 202°
2026-05-05 06:00 1.34885 103.99345 37 ft 151 kts 202°
2026-05-05 06:01 1.33432 103.98742 573 ft 173 kts 203°
2026-05-05 06:01 1.32699 103.98433 1143 ft 167 kts 204°
2026-05-05 06:01 1.31594 103.97961 1610 ft 181 kts 203°
2026-05-05 06:01 1.30371 103.97438 1869 ft 202 kts 203°
2026-05-05 06:02 1.29022 103.96868 2072 ft 226 kts 203°
2026-05-05 06:02 1.27497 103.96223 2419 ft 242 kts 203°
2026-05-05 06:02 1.25866 103.95780 3009 ft 245 kts 185°
2026-05-05 06:02 1.24179 103.95963 3667 ft 246 kts 160°
2026-05-05 06:03 1.22634 103.96687 4286 ft 250 kts 151°
2026-05-05 06:03 1.21072 103.97581 4605 ft 266 kts 149°
2026-05-05 06:03 1.19478 103.98532 5143 ft 273 kts 149°
2026-05-05 06:03 1.17846 103.99507 5738 ft 273 kts 149°
2026-05-05 06:04 1.16178 104.00497 6259 ft 278 kts 149°
2026-05-05 06:04 1.14521 104.01495 6863 ft 285 kts 149°
2026-05-05 06:04 1.12819 104.02498 7589 ft 284 kts 149°
2026-05-05 06:04 1.11119 104.03510 8228 ft 286 kts 149°
2026-05-05 06:05 1.09396 104.04533 8795 ft 289 kts 149°
2026-05-05 06:05 1.07647 104.05582 9440 ft 292 kts 149°
2026-05-05 06:05 1.05893 104.06636 10075 ft 296 kts 149°
2026-05-05 06:05 1.04084 104.07716 10348 ft 311 kts 149°
2026-05-05 06:06 1.02192 104.08861 10564 ft 326 kts 148°
2026-05-05 06:06 1.00203 104.10051 10794 ft 340 kts 149°
2026-05-05 06:06 0.98126 104.11284 10999 ft 354 kts 149°
2026-05-05 06:06 0.95972 104.12563 11252 ft 364 kts 149°
2026-05-05 06:07 0.93777 104.13869 11667 ft 369 kts 148°
2026-05-05 06:07 0.91561 104.15197 12124 ft 374 kts 149°
2026-05-05 06:07 0.89332 104.16533 12660 ft 375 kts 149°
2026-05-05 06:07 0.87083 104.17869 13171 ft 377 kts 148°
2026-05-05 06:08 0.84816 104.19214 13651 ft 382 kts 149°
2026-05-05 06:08 0.82565 104.20557 14186 ft 383 kts 148°
2026-05-05 06:08 0.80267 104.21925 14629 ft 385 kts 148°
2026-05-05 06:08 0.77957 104.23299 15038 ft 388 kts 148°
2026-05-05 06:09 0.75625 104.24689 15462 ft 391 kts 148°
2026-05-05 06:09 0.73281 104.26085 15881 ft 393 kts 148°
2026-05-05 06:09 0.70922 104.27492 16266 ft 397 kts 148°
2026-05-05 06:09 0.68545 104.28909 16682 ft 399 kts 148°
2026-05-05 06:10 0.66152 104.30336 17096 ft 401 kts 148°
2026-05-05 06:10 0.63743 104.31773 17478 ft 404 kts 148°
2026-05-05 06:10 0.61324 104.33215 17858 ft 406 kts 148°
2026-05-05 06:10 0.58901 104.34661 18180 ft 408 kts 148°
2026-05-05 06:11 0.56440 104.36123 18543 ft 412 kts 148°
2026-05-05 06:11 0.53979 104.37590 18988 ft 413 kts 148°
2026-05-05 06:11 0.51508 104.39069 19398 ft 415 kts 148°
2026-05-05 06:11 0.49019 104.40553 19814 ft 417 kts 148°
2026-05-05 06:12 0.46520 104.42044 20193 ft 419 kts 148°
2026-05-05 06:12 0.44010 104.43539 20541 ft 421 kts 148°
2026-05-05 06:12 0.41484 104.45044 20880 ft 423 kts 148°
2026-05-05 06:12 0.38951 104.46553 21208 ft 426 kts 148°
2026-05-05 06:13 0.36396 104.48076 21546 ft 428 kts 148°
2026-05-05 06:13 0.33866 104.49584 21876 ft 429 kts 148°
2026-05-05 06:13 0.31295 104.51116 22183 ft 431 kts 148°
2026-05-05 06:13 0.28713 104.52657 22492 ft 433 kts 148°
2026-05-05 06:14 0.26115 104.54205 22801 ft 435 kts 148°
2026-05-05 06:14 0.23508 104.55759 23143 ft 437 kts 148°
2026-05-05 06:14 0.20890 104.57319 23459 ft 439 kts 148°
2026-05-05 06:14 0.18258 104.58888 23742 ft 441 kts 148°
2026-05-05 06:15 0.15618 104.60461 24038 ft 443 kts 148°
2026-05-05 06:15 0.12966 104.62042 24299 ft 445 kts 148°
2026-05-05 06:15 0.10299 104.63632 24601 ft 447 kts 148°
2026-05-05 06:15 0.07622 104.65226 24882 ft 449 kts 148°
2026-05-05 06:16 0.04925 104.66835 25168 ft 451 kts 148°
2026-05-05 06:16 0.02223 104.68448 25465 ft 453 kts 148°
2026-05-05 06:16 -0.00490 104.70064 25774 ft 455 kts 148°
2026-05-05 06:16 -0.03218 104.71690 26062 ft 458 kts 148°
2026-05-05 06:17 -0.05963 104.73326 26373 ft 460 kts 148°
2026-05-05 06:17 -0.08720 104.74969 26715 ft 463 kts 148°
2026-05-05 06:17 -0.11491 104.76620 27045 ft 465 kts 148°
2026-05-05 06:17 -0.14279 104.78282 27359 ft 468 kts 148°
2026-05-05 06:18 -0.17078 104.79952 27698 ft 470 kts 148°
2026-05-05 06:18 -0.19897 104.81632 28033 ft 473 kts 148°
2026-05-05 06:18 -0.22729 104.83320 28391 ft 475 kts 148°
2026-05-05 06:18 -0.25579 104.85019 28741 ft 478 kts 148°
2026-05-05 06:19 -0.28442 104.86726 29045 ft 481 kts 148°
2026-05-05 06:19 -0.31290 104.88495 29366 ft 483 kts 146°
2026-05-05 06:19 -0.34086 104.90366 29680 ft 485 kts 144°
2026-05-05 06:19 -0.36864 104.92288 29946 ft 487 kts 144°
2026-05-05 06:20 -0.39655 104.94232 30232 ft 490 kts 144°
2026-05-05 06:20 -0.42458 104.96174 30519 ft 492 kts 144°
2026-05-05 06:20 -0.45248 104.98091 30806 ft 494 kts 145°
2026-05-05 06:20 -0.48128 105.00055 31054 ft 496 kts 145°
2026-05-05 06:21 -0.50948 105.01968 31288 ft 498 kts 145°